This is the latest recevied weather packets stored in our database for station/object WX4ET. If no packets are shown the sender has not sent any weather packets the latest 1 day(s).
| Time | Temp. | Humidity | Pressure | Rain* | Wind** | Luminosity | Snow |
|---|---|---|---|---|---|---|---|
| 1778077121 | 16.11° C | 99% | 1006.7 hPa | 0 mm | - | 114 W/m² | - |
| 1778076819 | 16.11° C | 99% | 1007.1 hPa | 0 mm | - | 78 W/m² | - |
| 1778075910 | 16.11° C | 99% | 1007.2 hPa | 0 mm | - | 45 W/m² | - |
| 1778075607 | 15.56° C | 99% | 1007.2 hPa | 0 mm | - | 41 W/m² | - |
| 1778074697 | 15.56° C | 99% | 1007.2 hPa | 0 mm | - | 47 W/m² | - |
| 1778072575 | 15.56° C | 99% | 1006.7 hPa | 0 mm | - | 52 W/m² | - |
| 1778071669 | 15° C | 99% | 1006.9 hPa | 0 mm | - | 53 W/m² | - |
| 1778071366 | 15° C | 99% | 1006.6 hPa | 0 mm | - | 49 W/m² | - |
| 1778070762 | 15° C | 99% | 1006.8 hPa | 0 mm | - | 54 W/m² | - |
| 1778069854 | 15° C | 99% | 1006.3 hPa | 0 mm | - | 8 W/m² | - |
| 1778068643 | 15.56° C | 99% | 1006.6 hPa | 4.83 mm | - | 9 W/m² | - |
| 1778067736 | 15.56° C | 99% | 1006.2 hPa | 0 mm | - | 11 W/m² | - |
| 1778065315 | 15° C | 99% | 1005.4 hPa | 0 mm | - | 6 W/m² | - |
| 1778064708 | 15° C | 98% | 1005.4 hPa | 1.27 mm | - | 2 W/m² | - |
| 1778063801 | 15.56° C | 95% | 1005.4 hPa | 3.05 mm | - | 0 W/m² | - |
| 1778062893 | 15.56° C | 95% | 1005.5 hPa | 0 mm | - | 0 W/m² | - |
| 1778061985 | 15° C | 98% | 1004.9 hPa | 0 mm | - | 0 W/m² | - |
| 1778061381 | 15° C | 98% | 1004.7 hPa | 0 mm | - | 0 W/m² | - |
| 1778060775 | 15° C | 98% | 1004.7 hPa | 0 mm | - | 0 W/m² | - |
| 1778059262 | 15° C | 98% | 1004.5 hPa | 0 mm | - | 0 W/m² | - |
| 1778058355 | 15° C | 97% | 1004.4 hPa | 0 mm | - | 0 W/m² | - |
| 1778058051 | 15° C | 98% | 1004.4 hPa | 0 mm | - | 0 W/m² | - |
| 1778057748 | 15° C | 98% | 1004.4 hPa | 0 mm | - | 0 W/m² | - |
| 1778056535 | 15° C | 98% | 1004.7 hPa | 0 mm | - | 0 W/m² | - |
| 1778055625 | 15.56° C | 98% | 1004.9 hPa | 0 mm | - | 0 W/m² | - |
* Rain latest hour (hover to see other rain measurements)
** Current wind speed in m/s (hover to see current wind gust speed)